FW2032 Weather Reports


time (UTC)temp
F
wind
direction
speed
knots
gust
knots
rain 1hr
in
rain 24hr
in
rain mn
in
humidity
%
barometer
mb
20260505070532 57 44 7.0 18.2 0.00 0.00 0.00 44 1009.2
20260505070046 57 32 9.6 18.2 0.00 0.00 0.00 44 1009.3
20260505065529 57 352 13.0 18.2 0.00 0.00 0.00 44 1009.2
20260505065028 57 49 9.6 20.9 0.00 0.00 0.00 45 1009.1
20260505064538 57 360 9.6 22.6 0.00 0.00 0.00 45 1009.3
20260505064028 57 5 13.9 22.6 0.00 0.00 0.00 44 1009.2
20260505063531 58 30 11.3 17.4 0.00 0.00 0.00 45 1009.1
20260505063100 58 28 8.7 20.9 0.00 0.00 0.00 45 1009.1
20260505062528 58 360 12.2 21.7 0.00 0.00 0.00 45 1008.8
20260505062029 58 44 12.2 21.7 0.00 0.00 0.00 44 1008.6
20260505061606 58 24 13.0 21.7 0.00 0.00 0.00 43 1008.4
20260505061031 58 24 13.0 21.7 0.00 0.00 0.00 43 1008.4
20260505060533 58 34 13.9 21.7 0.00 0.00 0.00 43 1008.5
20260505060042 59 51 14.8 21.7 0.00 0.00 0.00 43 1008.1
20260505055529 59 49 13.0 26.1 0.00 0.00 0.00 43 1008.0
20260505055030 59 45 16.5 26.1 0.00 0.00 0.00 44 1008.0
20260505054541 60 46 16.5 21.7 0.00 0.00 0.00 44 1008.1
20260505054028 60 35 11.3 19.1 0.00 0.00 0.00 46 1007.8
20260505053528 60 49 10.4 19.1 0.00 0.00 0.00 46 1007.6
20260505053047 61 26 11.3 19.1 0.00 0.00 0.00 45 1007.5
20260505052531 61 24 12.2 20.0 0.00 0.00 0.00 44 1007.4
20260505052028 61 29 12.2 20.0 0.00 0.00 0.00 44 1007.2
20260505051606 62 15 9.6 19.1 0.00 0.00 0.00 43 1007.1
20260505051033 62 42 11.3 20.0 0.00 0.00 0.00 43 1007.1
20260505050531 62 26 12.2 20.0 0.00 0.00 0.00 43 1006.9
20260505041543 67 40 11.3 20.0 0.00 0.00 0.00 41 1005.9
20260505041030 67 38 12.2 18.2 0.00 0.00 0.00 41 1005.8
20260505040530 67 35 7.8 14.8 0.00 0.00 0.00 42 1006.0
20260505040039 67 14 6.1 15.6 0.00 0.00 0.00 43 1005.9
20260505035529 67 24 7.8 16.5 0.00 0.00 0.00 42 1005.9
20260505035029 68 33 8.7 16.5 0.00 0.00 0.00 41 1005.7
20260505034543 68 33 9.6 15.6 0.00 0.00 0.00 41 1005.7
20260505034029 68 5 9.6 15.6 0.00 0.00 0.00 41 1005.5
20260505033533 69 9 9.6 15.6 0.00 0.00 0.00 41 1005.6
20260505033041 69 355 9.6 15.6 0.00 0.00 0.00 41 1005.5
20260505032529 70 13 7.0 18.2 0.00 0.00 0.00 41 1005.3
20260505032029 70 355 8.7 18.2 0.00 0.00 0.00 40 1005.0
20260505031539 70 28 9.6 18.2 0.00 0.00 0.00 39 1004.8
20260505031029 70 29 10.4 17.4 0.00 0.00 0.00 39 1004.8
20260505030529 71 22 9.6 14.8 0.00 0.00 0.00 40 1004.8
20260505030044 71 48 6.1 14.8 0.00 0.00 0.00 42 1004.7
20260505025530 71 42 7.8 14.8 0.00 0.00 0.00 42 1004.6
20260505025028 71 34 7.0 11.3 0.00 0.00 0.00 41 1004.4
20260505024548 72 40 7.0 13.9 0.00 0.00 0.00 42 1004.3
20260505024029 72 32 8.7 13.9 0.00 0.00 0.00 42 1004.2
20260505023529 71 24 8.7 13.9 0.00 0.00 0.00 44 1004.2
20260505023044 71 5 8.7 12.2 0.00 0.00 0.00 49 1004.0
20260505022531 71 336 6.1 11.3 0.00 0.00 0.00 56 1003.9
20260505022029 70 23 7.0 9.6 0.00 0.00 0.00 61 1003.8
20260505021549 70 11 7.0 11.3 0.00 0.00 0.00 65 1003.7
20260505021029 69 360 4.3 11.3 0.00 0.00 0.00 67 1003.5
20260505020529 70 344 2.6 4.3 0.00 0.00 0.00 65 1003.1
20260505020037 71 229 0.0 1.7 0.00 0.00 0.00 62 1002.8
20260505015530 72 0 0.0 1.7 0.00 0.00 0.00 61 1002.9
20260505015029 72 0 0.0 1.7 0.00 0.00 0.00 60 1002.7
20260505014537 72 228 0.9 1.7 0.00 0.00 0.00 60 1002.7
20260505014031 72 228 0.9 2.6 0.00 0.00 0.00 60 1002.6
20260505013529 72 228 0.9 2.6 0.00 0.00 0.00 60 1002.5
20260505013042 72 228 0.9 3.5 0.00 0.00 0.00 60 1002.5
20260505012529 73 228 1.7 3.5 0.00 0.00 0.00 59 1002.5
20260505012031 73 228 2.6 3.5 0.00 0.00 0.00 59 1002.5
20260505011545 72 228 2.6 3.5 0.00 0.00 0.00 59 1002.4
20260505011029 73 228 1.7 3.5 0.00 0.00 0.00 60 1002.3
20260505010529 73 228 2.6 3.5 0.00 0.00 0.00 60 1002.2
20260505010043 73 229 1.7 4.3 0.00 0.00 0.00 58 1002.1
20260505005529 74 229 2.6 4.3 0.00 0.00 0.00 58 1002.2
20260505005029 73 229 2.6 3.5 0.00 0.00 0.00 58 1002.1
20260505004544 74 229 1.7 3.5 0.00 0.00 0.00 60 1002.2
20260505004028 74 228 1.7 4.3 0.00 0.00 0.00 58 1002.2
20260505003528 75 227 1.7 6.1 0.00 0.00 0.00 57 1002.2
20260505003043 76 226 2.6 6.1 0.00 0.00 0.00 54 1002.1
20260505002528 76 222 4.3 7.0 0.00 0.00 0.00 53 1002.1
20260505002029 76 216 4.3 7.0 0.00 0.00 0.00 53 1002.1
20260505001539 77 225 5.2 7.8 0.00 0.00 0.00 51 1002.1
20260505001029 77 218 5.2 7.8 0.00 0.00 0.00 51 1002.2
20260505000530 78 221 4.3 7.8 0.00 0.00 0.00 50 1002.1
20260505000047 78 205 4.3 7.0 0.00 0.00 0.00 49 1002.1
20260504235529 78 198 4.3 7.8 0.00 0.00 0.00 49 1002.2
20260504235031 78 211 3.5 7.8 0.00 0.00 0.00 48 1002.2
20260504234542 79 221 4.3 7.8 0.00 0.00 0.00 48 1002.2
20260504234029 79 209 3.5 6.1 0.00 0.00 0.00 49 1002.2
20260504233531 79 201 3.5 9.6 0.00 0.00 0.00 50 1002.1
20260504233101 80 207 4.3 9.6 0.00 0.00 0.00 48 1002.2
20260504232529 80 196 4.3 7.8 0.00 0.00 0.00 48 1002.1
20260504232032 81 213 5.2 7.8 0.00 0.00 0.00 47 1002.1
20260504231546 80 197 4.3 7.8 0.00 0.00 0.00 48 1002.1
20260504231028 81 205 3.5 7.0 0.00 0.00 0.00 47 1002.1
20260504230528 81 203 4.3 7.0 0.00 0.00 0.00 49 1002.1
20260504230053 81 217 3.5 8.7 0.00 0.00 0.00 49 1002.1
20260504225529 80 223 5.2 11.3 0.00 0.00 0.00 49 1002.0
20260504225032 80 219 5.2 11.3 0.00 0.00 0.00 47 1002.0
20260504224540 80 221 4.3 10.4 0.00 0.00 0.00 47 1002.1
20260504224029 80 241 6.1 10.4 0.00 0.00 0.00 45 1002.0
20260504223530 80 225 5.2 9.6 0.00 0.00 0.00 46 1001.9
20260504223047 80 196 6.1 9.6 0.00 0.00 0.00 47 1001.9
20260504222528 80 204 6.1 13.0 0.00 0.00 0.00 47 1002.0
20260504222029 80 207 7.8 13.0 0.00 0.00 0.00 47 1001.9
20260504221539 80 204 8.7 13.0 0.00 0.00 0.00 43 1001.9
20260504221029 80 212 7.8 13.0 0.00 0.00 0.00 46 1001.9
20260504220529 81 210 7.8 12.2 0.00 0.00 0.00 44 1001.9
20260504220040 81 197 6.1 12.2 0.00 0.00 0.00 48 1002.0
20260504215529 81 232 8.7 12.2 0.00 0.00 0.00 44 1002.0
20260504215028 81 227 7.0 13.9 0.00 0.00 0.00 42 1002.1
20260504214548 81 228 7.0 13.9 0.00 0.00 0.00 44 1002.1
20260504214032 82 223 7.8 13.0 0.00 0.00 0.00 44 1002.1
20260504213529 82 229 8.7 13.0 0.00 0.00 0.00 43 1002.1
20260504213044 82 208 7.8 13.9 0.00 0.00 0.00 43 1002.2
20260504212529 82 200 7.0 13.9 0.00 0.00 0.00 43 1002.2
20260504212030 82 214 8.7 13.9 0.00 0.00 0.00 44 1002.3
20260504211541 82 236 7.8 13.0 0.00 0.00 0.00 41 1002.3
20260504211029 82 229 5.2 13.0 0.00 0.00 0.00 40 1002.3
20260504210529 82 218 7.8 13.0 0.00 0.00 0.00 37 1002.4
20260504210044 82 224 7.8 13.0 0.00 0.00 0.00 38 1002.4
20260504205532 83 226 6.1 12.2 0.00 0.00 0.00 39 1002.4
20260504205032 82 218 7.8 12.2 0.00 0.00 0.00 37 1002.4
20260504204546 82 213 7.0 11.3 0.00 0.00 0.00 41 1002.5
20260504204033 82 219 5.2 12.2 0.00 0.00 0.00 42 1002.5
20260504203532 82 200 7.0 13.0 0.00 0.00 0.00 43 1002.6
20260504203053 82 213 3.5 13.0 0.00 0.00 0.00 40 1002.7
20260504202530 82 210 7.8 12.2 0.00 0.00 0.00 41 1002.7
20260504202030 83 253 2.6 12.2 0.00 0.00 0.00 44 1002.7
20260504201541 83 256 5.2 12.2 0.00 0.00 0.00 42 1002.7
20260504201029 83 237 6.1 12.2 0.00 0.00 0.00 45 1002.7
20260504200532 83 240 1.7 12.2 0.00 0.00 0.00 44 1002.8
20260504200044 82 263 7.0 11.3 0.00 0.00 0.00 41 1002.7
20260504195532 82 175 4.3 10.4 0.00 0.00 0.00 43 1002.7
20260504195029 82 250 4.3 12.2 0.00 0.00 0.00 42 1002.8
20260504194540 82 220 7.0 12.2 0.00 0.00 0.00 43 1002.9
20260504194029 82 203 5.2 8.7 0.00 0.00 0.00 43 1002.9
20260504193533 82 244 2.6 7.8 0.00 0.00 0.00 40 1002.9
20260504193039 82 265 4.3 8.7 0.00 0.00 0.00 46 1002.9
20260504192531 82 250 4.3 10.4 0.00 0.00 0.00 43 1003.0
20260504192028 82 248 6.1 11.3 0.00 0.00 0.00 44 1003.0
20260504191543 82 268 1.7 11.3 0.00 0.00 0.00 46 1003.0
20260504191032 82 205 7.0 9.6 0.00 0.00 0.00 40 1003.0
20260504190532 81 187 5.2 10.4 0.00 0.00 0.00 42 1003.0
20260504190107 82 214 5.2 10.4 0.00 0.00 0.00 46 1003.1
20260504185532 81 267 2.6 7.8 0.00 0.00 0.00 42 1003.0
20260504185033 81 200 1.7 8.7 0.00 0.00 0.00 44 1003.0
20260504184541 81 222 3.5 10.4 0.00 0.00 0.00 46 1003.1
20260504184029 81 242 1.7 13.0 0.00 0.00 0.00 45 1003.0
20260504183529 81 273 5.2 13.0 0.00 0.00 0.00 45 1003.2
20260504183040 81 247 7.8 13.0 0.00 0.00 0.00 46 1003.1
20260504182532 80 193 5.2 9.6 0.00 0.00 0.00 47 1003.1
20260504182033 80 211 3.5 10.4 0.00 0.00 0.00 45 1003.1
20260504181542 80 274 6.1 10.4 0.00 0.00 0.00 47 1003.2
20260504181030 79 234 6.1 10.4 0.00 0.00 0.00 47 1003.2
20260504180533 79 233 6.1 10.4 0.00 0.00 0.00 46 1003.2
20260504180044 79 255 6.1 10.4 0.00 0.00 0.00 47 1003.2
20260504175528 79 264 4.3 9.6 0.00 0.00 0.00 51 1003.2
20260504175032 79 229 4.3 13.0 0.00 0.00 0.00 49 1003.3
20260504174544 78 231 7.0 13.0 0.00 0.00 0.00 49 1003.4
20260504174033 78 246 5.2 9.6 0.00 0.00 0.00 50 1003.4
20260504173531 78 223 7.0 11.3 0.00 0.00 0.00 48 1003.5
20260504173040 77 199 6.1 11.3 0.00 0.00 0.00 50 1003.5
20260504172530 77 244 6.1 11.3 0.00 0.00 0.00 49 1003.5
20260504172030 77 246 5.2 11.3 0.00 0.00 0.00 53 1003.5
20260504171546 77 236 7.0 11.3 0.00 0.00 0.00 53 1003.6
20260504171031 76 241 4.3 10.4 0.00 0.00 0.00 53 1003.7
20260504170528 76 225 7.0 10.4 0.00 0.00 0.00 52 1003.6
20260504151032 70 247 7.0 14.8 0.00 0.00 0.00 58 1004.0
20260504150534 70 257 9.6 15.6 0.00 0.00 0.00 58 1004.1
20260504141030 67 242 7.0 17.4 0.00 0.00 0.00 61 1004.2
20260504140529 67 246 9.6 17.4 0.00 0.00 0.00 60 1004.1
20260504130533 63 198 3.5 7.8 0.00 0.00 0.00 69 1004.0
20260504110535 56 189 3.5 6.1 0.00 0.00 0.00 78 1003.4
20260504100529 55 181 4.3 5.2 0.00 0.00 0.00 77 1004.1
20260504081545 60 182 3.5 4.3 0.00 0.00 0.00 66 1005.4
20260504081030 61 182 2.6 4.3 0.00 0.00 0.00 65 1005.4
20260504080530 61 182 0.9 4.3 0.00 0.00 0.00 65 1005.6